Weather History for KLAN - October, 2013

Change the Weather History Date:

Monday, October 14, 2013

  Actual Average Record
Temperature  
Mean Temperature 50 °F 51 °F  
Max Temperature 62 °F 61 °F 83 °F (1989)
Min Temperature 38 °F 41 °F 20 °F (1894)
Degree Days  
Heating Degree Days 15 14  
Month to date heating degree days 82 170  
Since 1 July heating degree days 273 358  
Cooling Degree Days 0 0  
Month to date cooling degree days 10 4  
Year to date cooling degree days 661 622  
Moisture  
Dew Point 39 °F    
Average Humidity 70    
Maximum Humidity 100    
Minimum Humidity 39    
Precipitation  
Precipitation 0.00 in 0.08 in 1.30 in (1893)
Month to date precipitation 1.01 1.21  
Year to date precipitation 34.91 25.80  
Snow  
Snow 0.00 in 0.00 in 0.10 in (1983)
Month to date snowfall 0.0 0.1  
Since 1 July snowfall 0.0 0.1  
Since 1 September snowfall 0.0 0.1  
Snow Depth 0.00 in    
Sea Level Pressure  
Sea Level Pressure 30.38 in    
Wind  
Wind Speed 5 mph (NE)    
Max Wind Speed 13 mph    
Max Gust Speed 15 mph    
Visibility 10 miles    
Events      
T = Trace of Precipitation, MM = Missing Value Source: NWS Daily Summary

Daily Weather History Graph

Daily Weather History Graph

Search for Another Location

Airport or City:

Trip Planner

Search our weather history database for the weather conditions in past years. The results will help you decide how hot, cold, wet, or windy it might be!

Date:

Astronomy

Oct. 14, 2013 Rise Set
Actual Time 7:50 AM EDT 6:57 PM EDT
Civil Twilight 7:22 AM EDT 7:25 PM EDT
Nautical Twilight 6:49 AM EDT 7:58 PM EDT
Astronomical Twilight 6:16 AM EDT 8:30 PM EDT
Moon 4:31 PM EDT (10/14) 3:00 AM EDT (10/14)
Length of Visible Light 12h 03m
Length of Day
11h 06m
Waxing Gibbous, 79% of the Moon is Illuminated
Oct 14
Waxing Gibbous
Oct 18
Full
Oct 26
Last Quarter
Nov 3
New
Nov 10
First Quarter

Hourly Weather History & Observations

Time (EDT) Temp. Windchill Dew Point Humidity Pressure Visibility Wind Dir Wind Speed Gust Speed Precip Events Conditions
12:53 AM 44.1 °F 42.5 °F 41.0 °F 89% 30.40 in 10.0 mi NNW 3.5 mph - N/A   Clear
1:53 AM 44.1 °F - 39.9 °F 85% 30.40 in 10.0 mi Calm Calm - N/A   Clear
2:53 AM 42.1 °F - 39.0 °F 89% 30.41 in 10.0 mi Calm Calm - N/A   Clear
3:53 AM 42.1 °F - 39.9 °F 92% 30.40 in 10.0 mi Calm Calm - N/A   Clear
4:53 AM 39.9 °F 37.8 °F 39.0 °F 97% 30.43 in 9.0 mi North 3.5 mph - N/A   Partly Cloudy
5:53 AM 43.0 °F 40.3 °F 41.0 °F 93% 30.43 in 10.0 mi North 4.6 mph - N/A   Partly Cloudy
6:53 AM 42.1 °F 39.2 °F 39.9 °F 92% 30.43 in 10.0 mi NNE 4.6 mph - N/A   Clear
7:53 AM 41.0 °F - 39.0 °F 93% 30.45 in 10.0 mi Calm Calm - N/A   Clear
8:53 AM 45.0 °F 43.5 °F 41.0 °F 86% 30.45 in 10.0 mi NNE 3.5 mph - N/A   Clear
9:53 AM 50.0 °F - 44.1 °F 80% 30.44 in 10.0 mi NE 8.1 mph - N/A   Clear
10:53 AM 54.0 °F - 39.0 °F 57% 30.44 in 10.0 mi NNE 10.4 mph - N/A   Clear
11:53 AM 55.0 °F - 37.0 °F 51% 30.43 in 10.0 mi NE 8.1 mph - N/A   Clear
12:53 PM 57.0 °F - 36.0 °F 45% 30.40 in 10.0 mi Variable 4.6 mph - N/A   Clear
1:53 PM 59.0 °F - 35.1 °F 41% 30.38 in 10.0 mi Calm Calm - N/A   Clear
2:53 PM 59.0 °F - 35.1 °F 41% 30.36 in 10.0 mi Variable 4.6 mph - N/A   Clear
3:53 PM 61.0 °F - 35.1 °F 38% 30.35 in 10.0 mi ENE 8.1 mph - N/A   Clear
4:53 PM 61.0 °F - 35.1 °F 38% 30.33 in 10.0 mi NNE 8.1 mph - N/A   Clear
5:53 PM 60.1 °F - 36.0 °F 41% 30.32 in 10.0 mi ENE 4.6 mph - N/A   Clear
6:53 PM 55.0 °F - 37.0 °F 51% 30.32 in 10.0 mi NE 4.6 mph - N/A   Clear
7:53 PM 52.0 °F - 37.0 °F 57% 30.31 in 10.0 mi NNE 3.5 mph - N/A   Clear
8:53 PM 48.9 °F - 42.1 °F 77% 30.30 in 10.0 mi ENE 6.9 mph - N/A   Clear
9:53 PM 46.0 °F 42.5 °F 41.0 °F 83% 30.30 in 10.0 mi ENE 6.9 mph - N/A   Clear
10:53 PM 45.0 °F 41.8 °F 39.9 °F 82% 30.30 in 10.0 mi ENE 5.8 mph - N/A   Clear
11:53 PM 44.1 °F 40.1 °F 39.9 °F 85% 30.29 in 10.0 mi East 6.9 mph - N/A   Clear